�������l�o���
Date,Time,MP-1(��Sv/h),MP-2(��Sv/h),MP-3(��Sv/h),MP-4(��Sv/h),MP-5(��Sv/h),MP-6(��Sv/h),MP-7(��Sv/h),MP-8(��Sv/h),����,����(m/s),���J
2018/02/19,00:00,0.883,1.482,0.923,1.737,1.195,0.485,0.863,0.832,�k�k��,1.7,��
2018/02/19,00:10,0.881,1.484,0.922,1.737,1.196,0.484,0.864,0.835,��,2.0,��
2018/02/19,00:20,0.882,1.487,0.922,1.735,1.195,0.482,0.864,0.833,�쐼,1.9,��
2018/02/19,00:30,0.883,1.486,0.923,1.736,1.195,0.482,0.863,0.833,��쐼,1.5,��
2018/02/19,00:40,0.880,1.486,0.922,1.735,1.195,0.484,0.866,0.834,�쐼,1.2,��
2018/02/19,00:50,0.880,1.485,0.922,1.735,1.195,0.483,0.864,0.834,��,0.6,��
2018/02/19,01:00,0.881,1.485,0.923,1.734,1.195,0.486,0.866,0.833,-,CALM,��
2018/02/19,01:10,0.882,1.486,0.922,1.735,1.195,0.485,0.863,0.834,��,0.9,��
2018/02/19,01:20,0.881,1.482,0.923,1.735,1.193,0.485,0.864,0.833,���쐼,1.2,��
2018/02/19,01:30,0.882,1.483,0.922,1.734,1.193,0.482,0.864,0.834,��,1.2,��
2018/02/19,01:40,0.882,1.484,0.921,1.734,1.194,0.484,0.864,0.834,���쐼,0.9,��
2018/02/19,01:50,0.880,1.485,0.922,1.734,1.196,0.484,0.865,0.835,���쐼,1.4,��
2018/02/19,02:00,0.879,1.485,0.921,1.734,1.194,0.484,0.863,0.834,��,0.9,��
2018/02/19,02:10,0.882,1.481,0.922,1.735,1.194,0.484,0.865,0.833,��,1.1,��
2018/02/19,02:20,0.879,1.484,0.923,1.735,1.194,0.485,0.863,0.834,�k��,2.0,��
2018/02/19,02:30,0.881,1.486,0.922,1.732,1.194,0.485,0.863,0.834,��,1.2,��
2018/02/19,02:40,0.881,1.482,0.922,1.734,1.195,0.484,0.863,0.834,�k��,0.6,��
2018/02/19,02:50,0.881,1.482,0.920,1.736,1.194,0.483,0.862,0.834,�k,0.6,��
2018/02/19,03:00,0.881,1.483,0.920,1.733,1.194,0.483,0.862,0.834,�쐼,0.9,��
2018/02/19,03:10,0.879,1.483,0.922,1.733,1.196,0.483,0.863,0.833,��,1.7,��
2018/02/19,03:20,0.881,1.482,0.921,1.734,1.194,0.484,0.863,0.834,���k��,2.0,��
2018/02/19,03:30,0.882,1.481,0.923,1.733,1.195,0.485,0.865,0.834,���k��,1.5,��
2018/02/19,03:40,0.881,1.486,0.923,1.735,1.194,0.483,0.862,0.835,���k��,2.9,��
2018/02/19,03:50,0.882,1.483,0.920,1.734,1.196,0.484,0.862,0.834,���k��,3.4,��
2018/02/19,04:00,0.880,1.484,0.922,1.733,1.193,0.483,0.863,0.835,��,2.2,��
2018/02/19,04:10,0.881,1.483,0.921,1.734,1.193,0.483,0.863,0.832,��,2.2,��
2018/02/19,04:20,0.880,1.480,0.922,1.734,1.197,0.483,0.864,0.833,��,1.9,��
2018/02/19,04:30,0.881,1.483,0.921,1.736,1.198,0.483,0.863,0.834,���k��,2.6,��
2018/02/19,04:40,0.881,1.485,0.922,1.732,1.196,0.485,0.862,0.833,��,1.5,��
2018/02/19,04:50,0.880,1.483,0.921,1.733,1.198,0.483,0.864,0.832,�쐼,3.0,��
2018/02/19,05:00,0.880,1.481,0.923,1.733,1.194,0.484,0.865,0.833,�쐼,3.9,��
2018/02/19,05:10,0.882,1.481,0.920,1.734,1.197,0.483,0.863,0.833,�쐼,3.8,��
2018/02/19,05:20,0.881,1.482,0.921,1.735,1.195,0.484,0.865,0.834,�쐼,4.3,��
2018/02/19,05:30,0.881,1.480,0.919,1.734,1.196,0.485,0.863,0.834,�쐼,4.2,��
2018/02/19,05:40,0.879,1.482,0.922,1.732,1.196,0.482,0.864,0.835,�쐼,4.3,��
2018/02/19,05:50,0.882,1.483,0.922,1.734,1.193,0.484,0.863,0.834,��쐼,4.3,��
2018/02/19,06:00,0.880,1.483,0.922,1.733,1.196,0.482,0.863,0.834,��쐼,3.8,��
2018/02/19,06:10,0.880,1.481,0.922,1.731,1.194,0.483,0.862,0.834,��쐼,3.9,��
2018/02/19,06:20,0.880,1.483,0.921,1.732,1.193,0.483,0.864,0.834,�쐼,3.2,��
2018/02/19,06:30,0.880,1.482,0.923,1.732,1.194,0.481,0.863,0.834,�쐼,2.6,��
2018/02/19,06:40,0.881,1.481,0.922,1.733,1.193,0.482,0.864,0.834,��쐼,3.8,��
2018/02/19,06:50,0.880,1.482,0.921,1.732,1.192,0.484,0.863,0.833,�쐼,3.9,��
2018/02/19,07:00,0.883,1.481,0.922,1.732,1.194,0.483,0.864,0.833,�쐼,3.1,��
2018/02/19,07:10,0.882,1.481,0.919,1.735,1.194,0.484,0.862,0.834,��쐼,2.0,��
2018/02/19,07:20,0.879,1.481,0.919,1.733,1.193,0.482,0.864,0.833,�쐼,2.0,��
2018/02/19,07:30,0.880,1.483,0.922,1.734,1.195,0.484,0.864,0.834,�쐼,2.3,��
2018/02/19,07:40,0.881,1.483,0.920,1.734,1.196,0.483,0.863,0.835,��쐼,2.3,��
2018/02/19,07:50,0.881,1.481,0.919,1.734,1.196,0.484,0.863,0.835,��쐼,2.5,��
2018/02/19,08:00,0.882,1.480,0.922,1.734,1.197,0.483,0.864,0.833,���쐼,1.5,��
2018/02/19,08:10,0.882,1.483,0.923,1.736,1.195,0.484,0.864,0.834,���k��,2.0,��
2018/02/19,08:20,0.882,1.485,0.922,1.737,1.196,0.484,0.865,0.832,�k��,2.6,��
2018/02/19,08:30,0.884,1.480,0.924,1.735,1.198,0.484,0.864,0.834,�k��,1.4,��
2018/02/19,08:40,0.882,1.481,0.927,1.737,1.196,0.485,0.865,0.834,�k��,1.7,��
2018/02/19,08:50,0.882,1.481,0.923,1.737,1.196,0.485,0.868,0.836,�k�k��,1.2,��
2018/02/19,09:00,0.885,1.484,0.922,1.737,1.198,0.484,0.867,0.835,���k��,1.7,��
2018/02/19,09:10,0.885,1.483,0.923,1.736,1.199,0.485,0.866,0.836,�k�k��,1.4,��
2018/02/19,09:20,0.882,1.484,0.922,1.735,1.197,0.484,0.867,0.836,��,1.2,��
2018/02/19,09:30,0.884,1.483,0.924,1.739,1.197,0.484,0.865,0.835,-,CALM,��
2018/02/19,09:40,0.886,1.482,0.925,1.737,1.199,0.484,0.867,0.837,�k��,2.8,��
2018/02/19,09:50,0.886,1.481,0.922,1.738,1.198,0.486,0.866,0.837,�k��,3.7,��
2018/02/19,10:00,0.886,1.484,0.923,1.738,1.201,0.486,0.866,0.835,�k��,3.5,��
2018/02/19,10:10,0.884,1.483,0.925,1.739,1.198,0.486,0.863,0.836,���k��,2.3,��
2018/02/19,10:20,0.886,1.483,0.922,1.737,1.200,0.487,0.866,0.835,�k��,2.6,�L
2018/02/19,10:30,0.885,1.482,0.926,1.737,1.200,0.487,0.864,0.835,���쓌,1.7,�L
2018/02/19,10:40,0.887,1.484,0.926,1.739,1.200,0.487,0.864,0.835,��쓌,0.9,��
2018/02/19,10:50,0.884,1.479,0.927,1.740,1.201,0.487,0.866,0.837,��쓌,1.7,��
2018/02/19,11:00,0.887,1.481,0.924,1.739,1.198,0.487,0.865,0.837,�쓌,3.4,�L
2018/02/19,11:10,0.885,1.482,0.926,1.739,1.200,0.487,0.863,0.836,�쓌,4.2,�L
2018/02/19,11:20,0.887,1.483,0.925,1.740,1.199,0.487,0.866,0.836,�쓌,4.0,��
2018/02/19,11:30,0.886,1.484,0.925,1.739,1.203,0.486,0.866,0.837,��쓌,4.7,��
2018/02/19,11:40,0.886,1.483,0.928,1.741,1.204,0.487,0.865,0.836,��쓌,5.3,��
2018/02/19,11:50,0.888,1.481,0.926,1.741,1.199,0.486,0.866,0.835,�쓌,5.7,��
2018/02/19,12:00,0.888,1.484,0.926,1.742,1.200,0.486,0.864,0.835,�쓌,5.1,��
2018/02/19,12:10,0.888,1.485,0.925,1.742,1.202,0.486,0.866,0.836,�쓌,5.1,��
2018/02/19,12:20,0.888,1.489,0.926,1.741,1.200,0.484,0.866,0.835,�쓌,4.0,��
2018/02/19,12:30,0.888,1.487,0.926,1.738,1.202,0.486,0.864,0.837,��쓌,4.7,��
2018/02/19,12:40,0.889,1.485,0.927,1.738,1.204,0.486,0.864,0.835,�쓌,4.7,��
2018/02/19,12:50,0.888,1.489,0.927,1.740,1.204,0.487,0.865,0.838,���쓌,4.3,��
2018/02/19,13:00,0.890,1.489,0.928,1.742,1.204,0.486,0.864,0.837,�쓌,4.6,��
2018/02/19,13:10,0.886,1.491,0.929,1.743,1.204,0.486,0.864,0.836,�쓌,3.8,��
2018/02/19,13:20,0.891,1.489,0.928,1.742,1.203,0.488,0.865,0.837,�쓌,2.9,��
2018/02/19,13:30,0.891,1.488,0.929,1.741,1.205,0.487,0.867,0.837,�쓌,1.1,��
2018/02/19,13:40,0.888,1.489,0.930,1.742,1.205,0.486,0.867,0.838,���쐼,1.1,��
2018/02/19,13:50,0.889,1.489,0.929,1.742,1.203,0.488,0.868,0.836,��,2.2,��
2018/02/19,14:00,0.890,1.488,0.927,1.742,1.207,0.487,0.868,0.837,���k��,3.0,��
2018/02/19,14:10,0.891,1.489,0.929,1.741,1.205,0.488,0.867,0.836,��,7.5,��
2018/02/19,14:20,0.892,1.489,0.929,1.743,1.208,0.487,0.867,0.837,��,9.3,��
2018/02/19,14:30,0.893,1.494,0.932,1.742,1.205,0.488,0.868,0.838,��,8.7,��
2018/02/19,14:40,0.891,1.491,0.930,1.746,1.206,0.489,0.866,0.835,��,4.9,��
2018/02/19,14:50,0.890,1.490,0.932,1.745,1.203,0.489,0.867,0.836,���k��,6.5,��
2018/02/19,15:00,0.890,1.492,0.932,1.745,1.206,0.487,0.866,0.837,��,6.7,��
2018/02/19,15:10,0.891,1.486,0.931,1.744,1.206,0.490,0.867,0.835,��,5.1,��
2018/02/19,15:20,0.891,1.490,0.931,1.741,1.205,0.487,0.866,0.837,��,6.1,��
2018/02/19,15:30,0.890,1.492,0.931,1.744,1.205,0.487,0.867,0.837,��,5.8,��
2018/02/19,15:40,0.890,1.490,0.927,1.740,1.208,0.488,0.866,0.837,��,6.3,��
2018/02/19,15:50,0.890,1.491,0.931,1.743,1.204,0.489,0.866,0.836,��,4.9,��
2018/02/19,16:00,0.892,1.492,0.929,1.746,1.208,0.488,0.867,0.838,��,5.5,��
2018/02/19,16:10,0.892,1.490,0.930,1.742,1.207,0.487,0.868,0.836,��,5.1,��
2018/02/19,16:20,0.892,1.491,0.931,1.742,1.206,0.487,0.868,0.837,��,5.6,��
2018/02/19,16:30,0.890,1.491,0.929,1.740,1.206,0.487,0.866,0.838,��,4.8,��
2018/02/19,16:40,0.890,1.493,0.928,1.744,1.203,0.486,0.869,0.838,���쐼,4.6,��
2018/02/19,16:50,0.890,1.491,0.931,1.744,1.206,0.489,0.867,0.836,��,5.5,��
2018/02/19,17:00,0.891,1.491,0.933,1.745,1.205,0.488,0.868,0.838,��,3.4,��
2018/02/19,17:10,0.891,1.490,0.930,1.746,1.206,0.488,0.869,0.838,���쐼,5.6,��
2018/02/19,17:20,0.889,1.489,0.929,1.745,1.207,0.487,0.869,0.838,��,4.5,��
2018/02/19,17:30,0.887,1.491,0.929,1.742,1.207,0.489,0.870,0.838,���쐼,4.6,��
2018/02/19,17:40,0.889,1.492,0.930,1.742,1.203,0.488,0.869,0.837,���쐼,3.8,��
2018/02/19,17:50,0.889,1.491,0.930,1.744,1.202,0.487,0.869,0.837,��,4.1,��
2018/02/19,18:00,0.890,1.489,0.929,1.744,1.204,0.488,0.869,0.838,��,4.3,��
2018/02/19,18:10,0.891,1.491,0.928,1.744,1.205,0.488,0.870,0.837,���쐼,3.6,��
2018/02/19,18:20,0.888,1.490,0.929,1.743,1.205,0.487,0.868,0.837,�k,2.2,��
2018/02/19,18:30,0.887,1.490,0.931,1.744,1.202,0.487,0.868,0.838,�k�k��,2.8,��
2018/02/19,18:40,0.889,1.494,0.930,1.742,1.204,0.487,0.867,0.834,�k,2.6,��
2018/02/19,18:50,0.889,1.491,0.929,1.740,1.203,0.486,0.869,0.837,�k�k��,3.4,��
2018/02/19,19:00,0.890,1.491,0.928,1.741,1.204,0.487,0.866,0.837,�k�k��,3.4,��
2018/02/19,19:10,0.888,1.489,0.928,1.741,1.204,0.487,0.866,0.837,�k�k��,3.4,��
2018/02/19,19:20,0.884,1.491,0.929,1.743,1.201,0.488,0.867,0.834,�k��,2.3,��
2018/02/19,19:30,0.885,1.490,0.929,1.741,1.203,0.487,0.867,0.835,�k��,2.6,��
2018/02/19,19:40,0.885,1.489,0.928,1.739,1.201,0.486,0.867,0.836,�k��,2.0,��
2018/02/19,19:50,0.886,1.490,0.929,1.742,1.203,0.486,0.865,0.834,�k��,2.2,��
2018/02/19,20:00,0.887,1.490,0.928,1.742,1.205,0.486,0.867,0.836,�k��,1.9,��
2018/02/19,20:10,0.886,1.489,0.930,1.740,1.202,0.486,0.864,0.836,���k��,1.7,��
2018/02/19,20:20,0.884,1.488,0.926,1.740,1.203,0.484,0.866,0.836,�k��,2.0,��
2018/02/19,20:30,0.885,1.490,0.927,1.743,1.202,0.485,0.866,0.835,���k��,1.7,��
2018/02/19,20:40,0.888,1.494,0.928,1.738,1.201,0.484,0.867,0.836,�k�k��,1.7,��
2018/02/19,20:50,0.886,1.491,0.928,1.740,1.202,0.486,0.867,0.835,�k�k��,2.3,��
2018/02/19,21:00,0.885,1.491,0.927,1.741,1.203,0.486,0.868,0.836,�k��,2.3,��
2018/02/19,21:10,0.887,1.489,0.928,1.742,1.204,0.486,0.868,0.833,�k��,2.3,��
2018/02/19,21:20,0.887,1.490,0.927,1.743,1.205,0.485,0.865,0.835,���k��,1.9,��
2018/02/19,21:30,0.887,1.489,0.927,1.739,1.202,0.485,0.864,0.836,���k��,2.3,��
2018/02/19,21:40,0.886,1.491,0.927,1.742,1.200,0.487,0.866,0.836,�k��,2.8,��
2018/02/19,21:50,0.889,1.488,0.928,1.743,1.203,0.484,0.864,0.836,���k��,2.5,��
2018/02/19,22:00,0.886,1.489,0.929,1.740,1.201,0.487,0.866,0.834,���k��,2.0,��
2018/02/19,22:10,0.887,1.488,0.927,1.740,1.201,0.485,0.866,0.836,���k��,2.6,��
2018/02/19,22:20,0.889,1.491,0.927,1.740,1.200,0.487,0.868,0.837,���k��,3.5,��
2018/02/19,22:30,0.887,1.487,0.928,1.741,1.204,0.486,0.868,0.835,���k��,4.4,��
2018/02/19,22:40,0.888,1.486,0.926,1.743,1.201,0.486,0.866,0.837,���k��,5.0,��
2018/02/19,22:50,0.886,1.490,0.930,1.740,1.202,0.487,0.867,0.837,��,4.2,��
2018/02/19,23:00,0.888,1.490,0.928,1.739,1.201,0.486,0.866,0.836,���k��,3.6,��
2018/02/19,23:10,0.888,1.492,0.927,1.741,1.204,0.487,0.866,0.839,���k��,4.2,��
2018/02/19,23:20,0.887,1.490,0.929,1.740,1.203,0.486,0.865,0.837,���k��,4.3,��
2018/02/19,23:30,0.886,1.489,0.928,1.742,1.203,0.488,0.866,0.837,���k��,4.2,��
2018/02/19,23:40,0.888,1.489,0.928,1.742,1.202,0.487,0.865,0.836,���k��,3.9,��
2018/02/19,23:50,0.886,1.488,0.927,1.739,1.202,0.486,0.868,0.837,���k��,4.6,��
